Theta_e
302 302 300 301 303 304 310 309 308 307 305 305 304 304 303 301 301 300 296 298 297 290 289 290 290 288 288 289 289 288 291 293 293 290 289 289 288 288 287 289 287 286 285 284 285 282 279 293 294 288 290 292 291 291
301 302 300 301 303 309 309 308 307 306 306 304 304 303 302 301 300 300 294 298 299 293 289 293 292 292 292 291 290 291 290 290 292 289 291 290 287 290 288 283 290 285 289 287 288 287 293 293 293 293 292 291 291 291
301 301 300 300 306 309 308 308 307 306 306 305 304 303 302 302 299 300 297 298 296 291 290 291 288 293 295 294 295 289 291 291 290 292 292 290 285 289 286 287 288 290 292 289 289 291 292 291 294 293 293 291 292 292
301 300 300 300 302 306 308 307 306 306 306 305 304 303 302 301 300 299 297 297 298 294 287 286 293 290 294 296 294 294 292 292 292 293 291 291 288 290 289 288 288 290 289 287 287 290 290 292 294 293 292 292 292 293
300 300 299 300 303 308 307 306 306 306 306 305 304 303 301 300 300 299 297 296 297 296 287 286 291 291 293 294 293 293 292 291 291 290 290 288 290 289 288 287 286 290 287 284 284 289 288 289 291 292 290 290 291 290
299 299 299 300 308 307 306 306 306 305 305 304 302 301 300 300 300 298 293 296 296 298 291 284 290 290 291 292 291 290 291 290 290 289 287 288 288 288 284 283 287 289 288 289 287 290 289 290 291 291 289 289 290 290
298 298 299 304 307 306 306 305 305 305 305 303 300 299 299 300 298 292 292 294 295 297 291 284 284 289 291 290 291 290 291 290 290 288 287 287 286 287 285 282 287 288 289 291 291 290 287 289 287 290 289 290 291 290
298 299 300 302 306 306 305 305 305 305 304 301 300 299 299 299 297 293 295 294 296 293 293 285 282 285 290 287 286 290 288 289 288 287 287 285 286 285 281 287 288 289 289 289 290 290 289 289 289 288 289 289 287 287
298 300 301 303 306 305 305 305 305 304 302 301 299 298 297 293 292 292 294 295 297 295 287 287 283 281 289 288 288 288 289 285 287 286 285 285 285 281 286 288 287 287 287 286 288 287 287 286 286 287 286 286 284 285
299 300 304 305 305 305 305 304 304 302 301 299 295 292 289 290 296 296 294 292 292 291 290 283 286 282 288 287 284 285 286 285 282 285 286 283 284 290 289 289 289 288 288 288 284 283 284 284 284 284 285 286 285 285
300 300 305 305 304 304 304 304 302 301 298 292 289 286 290 295 292 289 286 287 286 285 287 285 286 283 288 284 283 286 282 283 280 283 282 283 283 287 290 289 289 289 289 288 288 288 288 287 285 284 285 286 286 286
300 302 305 304 304 304 303 302 301 297 294 293 291 292 291 287 285 284 279 282 284 283 285 285 284 286 285 288 284 285 281 281 279 284 280 278 286 288 288 288 287 287 287 287 287 286 287 286 287 286 285 285 285 285
300 304 304 304 304 303 302 301 299 297 296 292 290 286 287 281 280 282 276 279 281 284 283 284 282 285 285 285 283 282 279 279 285 279 279 283 286 286 286 287 286 286 286 285 285 285 285 285 286 286 286 287 286 286
302 304 304 303 303 302 301 299 298 296 293 290 286 279 283 279 283 284 286 285 284 286 285 285 283 283 283 282 282 279 282 283 278 276 278 284 285 286 286 286 285 284 284 284 283 283 283 283 283 286 287 288 287 285
304 304 303 302 302 301 300 299 294 292 289 285 287 280 279 279 280 280 283 283 284 287 285 283 283 285 281 280 282 281 278 276 279 279 283 286 286 285 284 285 285 285 284 283 283 283 282 282 283 284 287 287 287 286
304 303 300 301 301 300 297 296 292 289 286 285 281 278 280 281 279 282 283 281 285 285 286 286 281 280 278 280 278 277 276 275 281 284 286 285 285 285 285 284 284 284 284 283 283 283 283 282 282 283 285 285 286 286
302 298 301 300 299 298 295 291 290 283 284 284 280 284 284 285 283 283 285 284 286 285 283 283 279 277 280 277 276 280 278 283 286 286 286 286 285 284 284 284 284 283 283 283 283 282 281 282 282 282 281 284 285 286
297 299 300 298 296 293 288 288 286 284 279 280 282 281 281 283 282 282 283 284 285 283 284 282 281 277 277 275 277 282 284 288 287 285 285 284 284 284 283 283 283 283 282 282 281 280 280 280 281 282 283 284 284 285
298 298 298 298 295 290 286 284 286 278 278 280 280 281 282 281 283 284 284 284 284 284 283 282 279 279 279 281 283 285 284 283 281 282 283 283 283 283 282 282 282 281 280 281 281 281 281 281 281 282 283 283 282 284
299 298 298 295 293 286 282 280 286 282 280 279 280 278 278 278 280 283 283 283 284 284 281 280 280 282 282 284 285 286 285 284 282 280 281 283 284 283 282 282 282 282 282 282 282 283 282 283 283 282 281 282 282 283
294 293 292 289 286 284 281 280 277 279 278 275 276 278 276 280 280 280 281 282 283 282 281 282 283 284 284 284 283 283 282 282 281 282 281 281 283 283 283 283 283 283 281 281 281 281 283 284 283 282 280 281 282 284
292 293 287 288 283 282 279 280 278 278 276 275 276 278 277 277 277 275 275 280 281 282 282 282 282 282 282 282 282 282 282 282 281 281 283 282 281 282 282 282 282 281 282 282 282 281 283 285 283 281 281 281 283 283
291 288 285 285 280 279 276 280 276 276 278 275 275 276 273 273 271 273 275 279 280 281 281 280 280 278 278 280 278 279 279 279 280 280 281 281 282 282 282 281 282 281 280 281 283 282 283 285 282 281 280 281 281 281
288 281 279 278 279 274 278 274 276 276 277 276 277 272 272 272 270 273 275 278 279 277 277 277 278 279 279 277 279 281 283 282 281 281 281 280 280 280 282 281 281 281 281 281 281 281 282 281 282 280 279 279 279 279
281 277 280 275 278 276 274 273 273 276 273 272 273 271 269 269 273 273 274 278 277 278 279 278 278 278 279 280 281 281 281 281 280 279 281 281 280 280 280 280 281 281 282 280 280 280 280 281 281 279 279 278 278 277
275 275 277 276 275 276 275 274 274 272 272 271 268 267 268 272 271 272 275 278 278 279 280 281 281 280 280 280 279 280 280 281 279 277 279 281 280 278 277 276 276 278 282 280 279 278 279 279 279 278 277 278 280 278
274 274 276 278 276 274 273 273 273 275 273 270 269 267 271 270 271 275 277 277 279 281 281 280 279 279 278 279 280 280 280 279 278 277 278 277 278 278 277 275 275 276 276 276 276 276 276 276 277 277 277 277 277 277
276 278 274 274 273 274 273 272 273 273 273 272 273 270 271 272 274 279 280 280 281 279 279 278 277 277 277 278 277 276 275 275 274 275 277 277 278 278 273 275 275 276 275 274 274 275 275 276 275 276 276 275 276 277
275 276 277 272 274 274 273 274 274 274 274 275 275 273 273 275 278 279 279 278 275 277 278 278 278 275 277 277 276 274 272 271 270 268 268 269 270 272 273 272 271 272 272 272 274 276 277 277 276 276 276 276 277 274
275 276 274 272 273 272 271 269 272 272 273 274 274 275 275 276 277 273 274 276 277 277 275 274 273 272 272 270 270 270 271 270 269 268 266 265 267 269 269 269 271 272 272 271 271 271 275 275 275 274 273 273 273 272
274 275 273 272 269 268 267 266 269 272 269 270 269 273 274 272 274 272 272 272 272 273 275 274 273 271 270 270 268 267 267 270 266 266 267 268 268 268 269 270 272 272 270 269 268 269 269 269 270 269 270 268 268 272
272 270 273 271 269 267 266 268 268 270 269 272 271 268 271 272 271 276 271 270 273 275 275 273 272 272 270 269 268 267 269 268 267 267 266 266 267 270 273 272 270 269 269 268 269 268 268 267 267 267 269 271 267 265
269 270 271 270 270 269 269 269 268 268 270 269 268 265 266 267 268 273 270 268 273 274 273 271 270 269 267 265 266 267 269 267 266 272 273 275 277 279 275 271 270 269 269 268 268 267 265 263 264 262 262 260 260 260
Wind_Speed
25 23 26 31 32 37 30 31 30 28 25 23 22 18 15 15 14 3 5 3 1 5 7 4 2 2 3 2 3 4 4 3 2 5 1 1 2 2 3 5 1 4 4 3 3 4 6 5 3 4 4 2 8 9
22 26 24 33 43 22 31 31 29 27 24 24 21 20 19 14 13 5 5 3 7 7 7 9 9 8 7 7 3 1 3 4 2 1 2 1 1 1 3 2 1 3 5 4 3 2 5 3 5 4 4 9 11 13
20 22 21 30 14 26 30 30 30 28 25 24 22 20 18 14 8 5 7 7 6 6 7 4 6 8 8 7 5 3 2 3 4 3 2 2 2 3 3 3 2 4 2 4 4 5 2 7 2 3 10 12 13 13
20 22 22 27 27 20 29 27 28 27 25 25 22 19 18 15 15 8 6 1 3 5 5 5 1 5 6 5 5 4 6 4 4 0 1 1 2 3 2 4 5 2 2 1 6 8 9 2 5 11 13 14 14 14
18 21 22 30 34 28 32 29 28 27 25 24 21 19 20 18 18 11 6 4 3 2 6 6 5 4 5 4 5 4 4 3 1 2 0 2 1 2 1 2 4 1 2 3 3 8 9 11 11 18 18 16 14 17
15 18 25 36 29 33 31 28 27 27 25 24 22 21 20 20 13 2 4 3 3 3 6 5 2 3 4 5 7 7 4 3 2 2 2 2 2 3 2 3 3 5 1 4 4 10 13 17 16 16 14 17 16 18
13 18 25 14 33 33 31 29 29 27 26 26 25 21 17 14 6 4 4 4 1 1 5 6 4 2 1 1 2 3 4 3 2 1 1 1 2 2 3 4 7 7 4 7 8 9 9 3 9 17 16 16 16 19
16 21 25 15 30 32 31 29 29 27 27 29 25 22 23 25 15 4 5 4 2 4 3 5 4 3 2 2 2 1 2 1 2 1 2 2 2 2 5 6 4 2 3 7 6 7 13 16 16 14 13 13 15 14
21 23 21 26 38 34 31 30 29 29 29 28 25 18 6 5 2 4 6 4 2 3 3 2 5 4 3 2 2 2 1 1 2 1 1 2 3 6 5 4 0 4 4 7 8 8 11 12 14 14 13 13 14 14
21 20 22 38 37 34 32 32 31 31 30 27 5 3 4 3 7 7 1 1 2 2 2 4 1 4 2 3 2 3 1 1 2 2 2 4 5 5 3 4 3 4 5 6 7 7 9 10 12 14 14 12 12 12
17 19 37 36 37 35 34 34 34 33 22 2 4 4 2 2 2 2 3 1 1 3 2 3 2 5 0 2 3 2 2 1 3 3 3 3 4 3 7 6 4 5 6 8 9 12 12 13 11 13 13 12 12 13
17 16 37 37 38 37 36 37 36 10 4 6 10 8 4 2 2 4 1 1 2 4 4 3 4 3 3 2 2 2 2 2 2 3 2 4 2 5 6 5 7 8 9 10 10 12 12 14 13 12 13 13 13 11
24 28 40 38 38 38 38 37 15 24 19 4 4 6 3 1 3 6 7 2 4 6 5 5 4 3 4 2 2 3 4 2 3 3 4 1 5 4 3 3 5 7 8 10 10 11 12 14 14 13 14 13 14 13
19 43 41 38 39 38 37 26 27 13 3 3 5 6 3 4 4 1 2 5 4 6 8 6 4 3 2 2 2 3 2 3 3 4 4 3 2 3 5 6 6 9 10 10 8 8 11 11 12 14 13 11 11 12
43 42 39 38 39 37 27 24 11 3 3 4 3 4 3 3 3 3 5 6 4 6 6 6 4 2 2 3 2 1 4 4 5 2 2 0 4 5 6 7 9 9 8 7 8 8 9 10 12 14 12 10 9 9
44 40 26 41 36 30 23 11 5 3 4 3 4 5 5 6 2 3 5 6 3 5 3 3 4 3 2 1 3 4 3 5 1 1 1 4 5 6 7 7 9 10 11 9 7 7 9 10 11 13 13 12 12 9
39 9 43 38 33 26 13 5 3 6 4 2 3 5 2 6 3 4 4 5 5 3 2 3 3 2 3 2 3 3 4 1 2 2 2 5 7 9 9 10 9 9 10 9 8 9 10 10 10 10 11 10 11 8
14 31 42 38 24 11 4 5 4 4 5 3 3 3 2 3 5 5 5 6 3 2 3 2 4 3 3 3 3 3 4 2 3 3 4 6 8 9 7 9 8 8 8 8 8 9 8 8 9 8 9 9 10 8
30 28 39 33 13 7 5 3 3 5 3 3 4 1 3 5 6 6 6 4 3 3 5 2 2 2 3 3 2 2 2 3 3 4 5 7 6 7 8 7 7 8 7 8 8 7 6 8 5 7 8 7 7 6
43 39 31 17 7 5 6 3 2 4 4 3 2 3 5 4 2 4 5 3 2 2 2 2 3 2 2 1 2 2 1 2 3 4 5 4 3 3 6 6 6 8 8 9 7 9 6 5 4 6 6 8 8 9
31 18 13 7 5 7 6 3 4 3 4 4 1 3 4 2 3 2 3 3 1 1 2 3 2 1 1 1 1 2 4 4 5 5 5 5 4 5 6 5 6 6 7 7 7 7 8 4 1 6 6 6 6 6
12 14 5 3 6 4 6 4 5 3 4 3 3 3 3 2 2 2 3 1 3 2 2 2 1 2 1 2 1 3 4 4 5 6 11 9 7 6 7 6 7 8 7 8 8 8 7 6 3 3 6 6 7 5
15 5 5 4 7 8 4 1 3 4 5 3 2 4 2 2 2 2 2 2 3 2 0 1 2 2 3 3 3 6 6 6 6 7 7 6 7 7 8 8 7 8 9 8 7 7 7 7 6 5 5 7 6 5
9 7 5 6 6 5 3 3 3 4 4 2 3 4 2 2 1 0 2 2 2 0 1 2 2 2 2 3 3 4 3 3 5 5 5 7 7 8 7 8 8 8 8 8 8 8 7 7 10 5 4 6 6 5
11 9 4 6 2 5 6 4 3 2 4 2 3 3 2 1 2 2 2 2 1 2 2 2 2 2 3 4 4 5 2 2 5 7 8 7 9 9 8 7 8 8 6 7 8 7 8 8 6 4 5 5 6 6
10 6 5 2 2 5 3 5 3 4 4 3 3 2 1 1 2 4 3 3 2 2 3 2 1 3 4 3 6 6 6 4 4 6 9 7 6 7 10 11 10 8 4 5 6 8 8 7 7 7 8 8 11 8
6 3 4 4 5 6 6 4 3 3 4 5 5 4 3 3 5 4 1 2 2 2 1 0 1 3 4 5 5 4 5 5 6 8 9 8 7 7 7 8 11 7 7 8 7 8 10 10 9 8 8 6 5 4
4 2 7 4 4 2 6 4 4 3 4 4 6 5 8 7 4 2 2 1 1 1 1 1 0 2 3 4 4 5 5 5 7 8 6 4 1 1 2 3 6 17 10 9 9 8 8 8 7 7 6 5 4 3
5 3 4 5 5 4 4 3 3 1 4 4 4 3 4 2 1 1 1 1 1 1 0 0 0 2 3 3 3 2 4 4 6 6 8 8 7 5 5 8 8 8 7 7 14 13 9 6 6 5 5 4 4 1
3 2 5 3 4 3 2 3 2 2 2 2 2 1 0 1 0 1 2 2 2 2 1 0 2 3 4 5 7 7 3 2 2 2 5 7 8 10 10 10 10 9 7 7 7 8 12 6 4 2 1 1 2 1
1 2 5 5 4 2 2 3 2 3 3 3 3 1 1 4 3 1 1 1 2 1 1 2 1 2 2 4 4 6 6 2 2 5 6 8 9 10 10 10 9 7 6 6 6 6 6 5 3 3 3 2 2 1
3 4 4 5 3 1 1 2 1 1 1 1 2 1 2 2 3 2 3 3 2 1 0 1 3 3 2 3 2 4 9 6 7 7 11 9 9 11 10 4 4 4 5 5 5 4 4 4 4 4 4 4 4 3
3 3 3 5 4 2 1 1 3 2 1 1 2 1 1 1 5 3 0 3 2 0 1 2 2 3 4 3 4 4 5 5 11 17 18 19 19 16 1 2 3 3 5 5 4 4 4 4 4 5 4 4 3 3
Wind_Direction
296 297 316 308 304 297 182 164 158 156 160 155 153 157 154 142 134 100 94 2 7 87 79 64 45 109 140 274 193 104 182 176 27 233 242 195 279 131 276 43 289 195 198 199 192 223 240 6 186 296 39 323 336 328
291 294 311 307 298 215 171 162 155 148 156 147 148 151 148 140 137 131 103 70 57 66 86 89 70 44 26 15 333 43 44 82 89 44 235 58 127 187 350 171 159 237 342 341 291 18 89 21 329 108 8 331 328 318
281 289 300 309 319 163 165 162 149 152 150 148 149 154 149 133 123 124 119 140 104 106 113 91 36 31 34 13 347 294 104 111 110 14 21 77 132 275 222 146 185 148 352 249 323 134 240 307 189 211 349 328 317 308
269 283 290 299 288 254 160 159 152 148 145 149 148 149 143 129 122 126 103 71 85 117 101 94 360 45 346 15 26 10 97 115 114 282 51 168 183 241 358 9 293 33 318 312 277 292 320 354 169 341 326 316 305 304
262 277 290 291 289 180 159 160 151 144 146 144 142 140 133 129 113 93 85 54 17 330 111 113 125 37 15 47 60 75 94 101 101 126 64 83 18 277 100 265 249 170 28 272 330 356 315 293 323 323 313 309 312 310
260 280 291 295 171 155 151 154 149 145 143 134 136 129 131 132 130 160 98 58 14 6 115 116 98 56 59 77 72 71 63 50 54 20 83 90 22 296 268 254 89 146 182 302 276 317 302 297 304 308 316 315 308 305
245 266 287 270 148 150 151 155 148 146 138 133 127 114 109 98 64 34 67 90 144 302 99 114 117 101 343 290 62 61 56 69 34 94 101 97 157 280 266 251 161 190 268 289 288 292 286 306 312 316 308 302 304 307
227 243 265 230 156 151 154 151 146 140 135 134 124 105 98 97 123 82 47 60 322 88 64 113 101 180 209 150 113 322 95 122 55 68 159 216 143 225 255 225 165 221 304 306 333 318 299 308 309 310 319 315 309 304
233 247 243 262 151 152 152 145 141 136 134 130 123 113 88 43 84 100 123 80 54 49 102 95 140 139 189 121 88 128 291 156 71 220 173 234 175 226 241 181 85 360 336 320 325 309 302 303 311 314 316 314 310 306
229 255 202 147 146 149 145 142 140 134 133 133 107 105 99 53 128 149 135 92 48 62 53 85 162 118 214 161 106 134 345 75 201 109 130 229 252 247 165 98 48 360 330 309 293 298 300 291 299 307 305 303 303 302
218 247 148 151 145 146 144 141 137 136 139 93 106 81 86 157 209 47 103 97 128 89 77 93 54 126 159 173 122 275 144 159 217 129 248 234 254 135 124 86 35 342 320 313 304 298 296 290 293 294 292 292 296 298
210 212 147 148 145 144 142 141 144 151 133 141 109 111 132 101 71 97 51 131 193 139 137 138 114 85 111 327 143 183 158 181 212 129 216 249 85 81 56 19 352 340 329 314 310 304 302 296 290 285 287 286 290 285
207 177 144 145 143 142 144 150 139 124 118 131 117 84 143 94 176 180 166 176 157 162 165 151 131 127 138 178 124 177 183 175 125 219 240 304 101 83 25 340 317 306 301 302 302 303 302 298 297 288 282 281 287 286
201 144 144 145 143 143 147 145 142 130 102 96 115 119 186 170 233 158 119 114 97 117 136 119 111 100 108 151 143 170 154 171 242 235 230 127 97 315 330 322 316 307 308 305 300 294 291 295 296 296 281 277 279 279
148 143 146 144 142 143 146 144 106 49 65 85 93 128 161 95 58 101 98 98 75 120 124 114 96 126 128 132 202 138 169 230 233 243 87 143 306 315 312 314 307 306 308 299 292 293 293 295 296 295 289 283 274 270
139 139 144 138 139 138 139 115 48 72 61 76 92 113 131 94 156 125 97 102 135 130 105 78 111 121 117 158 177 208 208 225 167 122 317 314 297 293 299 304 301 307 307 296 287 293 296 295 297 297 298 293 285 267
137 130 142 136 132 134 93 81 63 50 53 49 74 74 113 77 106 107 108 105 145 152 115 140 132 107 112 164 227 196 221 242 175 258 288 285 292 309 308 299 298 303 302 293 300 298 291 294 296 293 296 302 299 265
123 140 136 135 134 100 55 40 81 75 72 26 77 72 48 58 108 90 98 131 136 125 156 106 129 162 180 195 213 211 225 246 256 274 287 301 304 310 310 301 303 299 289 279 277 283 282 280 287 295 306 299 293 274
138 134 137 143 127 97 91 64 17 93 61 63 81 57 79 77 46 77 92 87 73 88 112 120 128 196 217 203 224 184 232 230 266 295 296 291 286 291 295 287 280 281 272 269 277 279 285 277 282 298 296 297 294 294
127 129 127 108 60 87 88 64 36 88 117 113 70 54 63 54 41 84 78 59 68 87 103 172 211 206 211 149 202 247 219 227 262 283 273 276 311 269 270 286 298 296 291 279 261 260 265 270 12 315 303 301 297 297
107 116 82 63 63 59 78 106 76 70 110 83 93 50 75 53 64 48 67 351 34 207 235 230 257 275 220 272 264 284 272 249 243 237 268 275 272 287 281 275 274 280 272 267 263 269 270 284 294 288 288 290 291 294
115 95 93 60 89 89 86 25 97 92 68 93 81 56 89 98 95 59 321 205 234 238 214 215 284 339 321 289 298 231 275 280 261 268 269 270 270 281 288 300 301 289 274 264 260 257 259 261 285 297 280 286 298 292
95 66 61 66 91 52 68 355 88 18 99 116 134 107 68 91 33 297 226 259 284 266 312 286 283 258 267 299 309 273 227 231 255 263 279 274 274 279 281 278 276 283 286 280 269 257 263 269 278 281 277 288 287 289
53 56 68 60 63 109 127 62 77 90 106 85 92 104 108 87 319 197 261 244 241 111 220 222 229 263 217 233 253 266 285 195 266 273 268 272 280 283 281 290 292 287 277 283 282 282 274 267 271 274 268 275 280 282
71 14 70 85 90 100 80 83 93 113 95 77 104 118 128 228 157 183 246 264 223 221 197 190 224 238 263 278 292 293 247 259 297 303 293 291 285 285 287 286 289 284 281 278 283 282 285 278 271 258 265 264 272 283
74 5 40 85 84 97 118 99 122 128 115 100 71 101 187 135 119 236 221 208 209 194 180 199 264 298 291 270 293 311 324 340 305 280 282 283 289 290 294 297 301 301 335 338 315 302 297 294 294 285 277 275 283 292
97 78 55 37 75 110 103 77 86 111 122 145 156 145 140 148 229 241 246 201 201 175 179 281 285 278 284 296 308 313 320 312 276 280 291 288 281 279 283 294 300 318 331 315 309 297 285 285 284 278 279 280 268 258
92 117 125 148 100 30 111 110 152 141 130 133 138 163 168 191 214 215 199 94 122 57 318 313 241 238 283 296 314 319 302 306 296 284 277 264 205 5 23 323 298 304 303 290 280 283 279 277 277 278 280 274 277 268
81 101 112 61 71 57 53 89 118 98 120 166 129 166 208 212 279 199 102 53 41 327 99 118 215 334 297 313 287 292 314 320 338 336 337 323 328 326 353 315 304 300 297 296 294 295 285 282 269 260 258 268 300 336
76 354 95 83 74 77 58 353 59 54 41 47 3 101 267 237 202 34 304 262 194 155 152 4 336 356 329 326 319 325 339 1 41 29 329 313 308 310 304 300 299 299 297 296 296 298 309 308 309 316 323 264 235 215
67 99 82 56 77 43 21 343 328 51 32 40 5 29 9 327 312 154 219 189 165 162 56 358 300 191 318 338 327 329 321 31 351 302 292 293 293 289 289 291 294 307 303 298 298 296 300 305 300 314 312 299 306 35
39 45 102 101 96 61 27 28 37 79 1 59 42 328 284 244 277 203 172 178 174 222 42 327 333 332 1 315 288 258 278 298 307 317 306 285 279 278 279 287 290 302 318 319 324 325 326 324 330 349 335 356 19 30
81 67 79 106 111 139 129 121 35 52 60 80 66 338 335 305 253 301 83 223 244 269 319 321 324 310 313 286 274 296 314 305 306 310 312 307 314 320 328 262 293 331 346 349 1 4 15 18 20 19 25 22 11 3